SCOUT B DEB, 29177

Orbit data source: Space-Track

SCOUT B DEB, 29177 is space debris in LEO originally from a launch on Tue, 10 Aug 1965 UTC launched from the Wallops Island (WLPIS). Debris objects in space refer to the collection of defunct objects orbiting the Earth. Examples of debris include non-operational satellites, rocket bodies, and fragments generated from explosions, collisions, or faulty payload assembly.

Loading next visibility...
Identifier
29177, 1965-063AB
Orbit
LEO
Country
Flag of USUS
Related business
Manufacturer
Unknown
Mission
Spacecraft
Bus & Motor
Unknown
Mass
Unknown
Launch date (UTC)
1965-08-10 (60 years ago)
Launch vehicle
Unknown
Launch site
Wallops Island (WLPIS)
Object type
Payload
Rocket body
Debris
Shape & HBR
Unknown
Radar Cross Section
Small (<0.1 m²)

Expand to show TLE details & history
Last TLE update: 9 months ago

TLE from 9 months ago
0 SCOUT B DEB
1 29177U 65063AB  24346.02090466 -.00000566  00000-0 -40833-2 0  9991
2 29177  69.2143  72.6906 0666688 116.8677  53.1185 11.88940000  3781
Epoch: 2024-12-11T00:30Z
TLE epoch observation values (Epoch: 2024-12-11T00:30:06.162Z)
Latitude
3.28534°
Longitude
163.70103°
Altitude
1,432.404 km
Speed
7.277 km/s
True Right ascension
16h 45m 47s
True Declination
3° 16' 03"
Sunlit
Object was in daylight at epoch
Visualization orbit readout
Latitude
Unknown
Longitude
Unknown
Altitude
Unknown
Speed
Unknown
Apparent Right ascension
Unknown
Apparent Declination
Unknown
Sunlit
N/A
Visualization observer readout
Local Sidereal Time
15:03:07
Azimuth
Unknown
Elevation
Unknown
Doppler factor
Unknown
Orbital elements
Apogee altitude
2,269.564 km
Perigee altitude
1,188.569 km
Semi-major axis
8,107.203 km
Eccentricity
0.06667
Inclination
69.2143°
RAAN
72.6906°
Arg. of periapsis
116.8677°
True anomaly
59.53679°
Mean anomaly
53.1185°
Eccentric anomaly
56.2963°
Mean motion
2.97329 °/min
Orbital period
121.08 mins
BSTAR
-0.0040833
Loading maneuver chart data...
Computing Atmospheric mass density...
Loading historical data...
Loading historical data...
Loading historical data...
Loading historical data...
Loading historical data...
Loading historical data...
Loading historical data...

Documentation

Showing up to 5 results
|